This is the latest recevied weather packets stored in our database for station/object K6CED. If no packets are shown the sender has not sent any weather packets the latest 10 day(s).
| Time | Temp. | Humidity | Pressure | Rain* | Wind** | Luminosity | Snow |
|---|---|---|---|---|---|---|---|
| 1788219319 | 31.67° C | 31% | 1014.9 hPa | 0 mm | - | 349 W/m² | - |
| 1788219015 | 30.56° C | 32% | 1014.9 hPa | 0 mm | - | 365 W/m² | - |
| 1788218710 | 31.11° C | 31% | 1014.9 hPa | 0 mm | - | 381 W/m² | - |
| 1788218406 | 31.11° C | 30% | 1014.9 hPa | 0 mm | - | 400 W/m² | - |
| 1788218102 | 31.11° C | 29% | 1015 hPa | 0 mm | - | 420 W/m² | - |
| 1788217797 | 31.11° C | 29% | 1015.1 hPa | 0 mm | - | 442 W/m² | - |
| 1788217493 | 31.11° C | 29% | 1015.1 hPa | 0 mm | - | 465 W/m² | - |
| 1788217187 | 31.11° C | 29% | 1015 hPa | 0 mm | - | 486 W/m² | - |
| 1788216883 | 31.67° C | 28% | 1015.2 hPa | 0 mm | - | 506 W/m² | - |
| 1788216577 | 31.67° C | 29% | 1015 hPa | 0 mm | - | 525 W/m² | - |
| 1788216277 | 31.11° C | 30% | 1015.3 hPa | 0 mm | - | 545 W/m² | - |
| 1788215972 | 31.67° C | 29% | 1015.3 hPa | 0 mm | - | 566 W/m² | - |
| 1788215667 | 31.67° C | 30% | 1015.4 hPa | 0 mm | - | 581 W/m² | - |
| 1788215364 | 32.22° C | 29% | 1015.2 hPa | 0 mm | - | 599 W/m² | - |
| 1788215068 | 31.67° C | 31% | 1015.4 hPa | 0 mm | - | 617 W/m² | - |
| 1788214754 | 31.67° C | 30% | 1015.4 hPa | 0 mm | - | 633 W/m² | - |
| 1788214450 | 32.22° C | 30% | 1015.5 hPa | 0 mm | - | 643 W/m² | - |
| 1788214159 | 32.22° C | 31% | 1015.4 hPa | 0 mm | - | 656 W/m² | - |
| 1788213841 | 32.22° C | 32% | 1015.3 hPa | 0 mm | - | 673 W/m² | - |
| 1788213536 | 32.22° C | 32% | 1015.4 hPa | 0 mm | - | 688 W/m² | - |
| 1788213231 | 31.67° C | 35% | 1015.4 hPa | 0 mm | - | 703 W/m² | - |
| 1788212928 | 31.11° C | 34% | 1015.5 hPa | 0 mm | - | 709 W/m² | - |
| 1788212625 | 31.67° C | 35% | 1015.5 hPa | 0 mm | - | 715 W/m² | - |
| 1788212319 | 31.11° C | 36% | 1015.5 hPa | 0 mm | - | 724 W/m² | - |
| 1788212016 | 31.67° C | 36% | 1015.6 hPa | 0 mm | - | 733 W/m² | - |
* Rain latest hour (hover to see other rain measurements)
** Current wind speed in m/s (hover to see current wind gust speed)